Back to catalog

STARLINK-35098

AliveCommunicationsVLEO
NORAD 65476·PAYLOAD·🇺🇸 United States

Launched Sep 3, 2025 from Cape Canaveral Space Force Station

Loading…

Next Passes (next 24 hours)

TLE

FreshSource: CelesTrak SupGP

Epoch: Sep 14, 2026, 20:44 UTC

1 65476C 25195U   26257.86437500 -.00032750  00000+0 -10528-2 0  2578
2 65476  53.1580  97.5813 0001340  87.9444 284.5040 15.31728550    10

Track STARLINK-35098 in real time with AllMySat

Download on the App Store